[[{"header":{"parameterUnit":"m.s-1","parameterCategory":2,"la1":30.2991,"la2":30.254,"lo1":-89.0895,"lo2":-89.0444,"dy":0.0017,"dx":0.0017,"nx":28,"ny":28,"refTime":"2024-08-21T21:00:00:Z","depth":"0","parameterNumber":2,"parameterNumberName":"U-component_of_CURRENTS"},"data":[0,0,0,0,0,0,0,0,0,0,0,0,0,0,0,0,0,0,0,0,0,0,0,0,0,0,0,0,0,0,0,0,0,0,0,0,0,0,0,0,0,0,0,0,0,0,0,0,0,0,0,0,0,0,0,0,0,0,0.1737,0.1738,0,0.1807,0.1808,0.1808,0.182,0.182,0.182,0.1819,0.1872,0.1873,0.1875,0,0,0,0,0,0,0,0,0,0,0,0,0,0.1587,0.159,0.1737,0.1738,0.1739,0.1807,0.1808,0.1808,0.182,0.182,0.1819,0.1819,0.1871,0.1873,0.1875,0,0,0,0,0,0,0,0,0,0,0,0,0,0.1652,0.1591,0.1736,0.1755,0.1757,0.1807,0.1808,0.1809,0.182,0.182,0.1819,0.1819,0.1871,0.1873,0.1876,0.1902,0,0,0.1884,0.1885,0,0,0,0,0,0,0,0,0.1648,0.1657,0.1751,0.1754,0.1757,0.1807,0.1775,0.184,0.1821,0.1794,0.1819,0.1819,0.185,0.1855,0.1866,0.1905,0.1907,0.1884,0.1885,0.1886,0.1887,0,0,0,0,0,0,0,0.1644,0.1654,0.1762,0.1752,0.1756,0.1751,0.176,0.1787,0.1822,0.1796,0.1798,0.181,0.1851,0.1863,0.1867,0.1908,0.1884,0.1886,0.1888,0.1889,0.2079,0.2083,0,0,0,0,0,0,0.1643,0.165,0.176,0.1764,0.1703,0.1755,0.1764,0.1789,0.1822,0.1828,0.181,0.181,0.1859,0.1864,0.1869,0.1961,0.1886,0.1889,0.189,0.2076,0.208,0.2084,0,0,0,0,0,0,0.164,0.1653,0.1757,0.171,0.1723,0.1758,0.1786,0.1791,0.1801,0.1834,0.1838,0.1816,0.1859,0.1865,0.1905,0.1961,0.189,0.1892,0.2072,0.2077,0.2082,0.2108,0,0,0,0,0,0,0.1635,0.1651,0.1665,0.171,0.1726,0.1785,0.1787,0.1793,0.1811,0.1812,0.184,0.1845,0.1859,0.1901,0.1907,0.1963,0.1894,0.2067,0.2074,0.208,0.2103,0.2113,0.2123,0,0,0,0,0,0.163,0.1654,0.1665,0.1678,0.1745,0.1786,0.1793,0.1814,0.1812,0.182,0.1848,0.1844,0.1949,0.1905,0.1912,0.1969,0.2064,0.2072,0.208,0.2098,0.2111,0.2122,0,0,0,0,0,0,0.1595,0.1659,0.1672,0.1714,0.1746,0.1789,0.1803,0.1814,0.1841,0.1844,0.1863,0.1871,0.194,0.1953,0.1903,0.2052,0.2017,0.2026,0.2029,0.2041,0.2051,0.2076,0.1897,0,0,0,0,0,0.1595,0.1631,0.1682,0.1713,0.1731,0.1764,0.1782,0.1799,0.1832,0.1843,0.1864,0.1913,0.1981,0.2003,0.2053,0.2109,0.2146,0.2164,0.2174,0.2182,0.2213,0.2313,0.2334,0.211,0.211,0.211,0,0,0.1589,0.163,0.1648,0.1707,0.1734,0.1766,0.1773,0.1805,0.1843,0.1846,0.1894,0.1939,0.2006,0.2084,0.2118,0.2096,0.2264,0.2192,0.2197,0.2225,0.2323,0.2345,0.2364,0.2115,0.2114,0.2113,0,0,0.159,0.1632,0.1657,0.1688,0.1735,0.1765,0.1773,0.1818,0.1851,0.1903,0.1941,0.2025,0.2079,0.2165,0.2213,0.2312,0.2315,0.2322,0.2385,0.248,0.2499,0.2516,0.2571,0.2592,0.2323,0.2323,0.2323,0,0.1575,0.1624,0.1666,0.1696,0.1734,0.1764,0.1799,0.1839,0.1891,0.1946,0.1923,0.2093,0.214,0.2287,0.2333,0.2338,0.2365,0.232,0.249,0.2508,0.2525,0.2578,0.2601,0.2325,0.2325,0.2325,0.2325,0,0.1594,0.1632,0.165,0.1707,0.175,0.1785,0.1853,0.1902,0.1942,0.1992,0.2126,0.2197,0.2306,0.2345,0.237,0.2531,0.2501,0.2486,0.2447,0.2548,0.2598,0.2622,0.2329,0.2328,0.2327,0.2327,0,0,0.1567,0.1647,0.1653,0.169,0.1766,0.1806,0.1894,0.1998,0.2061,0.2134,0.2239,0.2392,0.2427,0.249,0.2536,0.2629,0.2772,0.2606,0.261,0.2639,0.2949,0.2912,0.2933,0.2764,0.2769,0.2773,0.2926,0,0.1568,0.1622,0.1676,0.1741,0.1781,0.1867,0.1938,0.2041,0.2122,0.2219,0.2354,0.2449,0.248,0.2528,0.2639,0.2748,0.284,0.273,0.2868,0.2873,0.281,0.2963,0.2911,0.3043,0.295,0.2954,0.2956,0,0.1569,0.1615,0.167,0.178,0.1806,0.1846,0.1998,0.2073,0.2231,0.2297,0.2435,0.25,0.2695,0.2667,0.2923,0.2839,0.2914,0.2978,0.2984,0.2965,0.2883,0.2936,0.309,0.3027,0.2993,0.299,0.2988,0,0.1532,0.1619,0.1668,0.17,0.1813,0.1876,0.195,0.2095,0.2175,0.2346,0.2403,0.2608,0.2705,0.2862,0.3009,0.2972,0.3242,0.3202,0.3238,0.3233,0.3232,0.3219,0.3331,0.3379,0.3379,0.3378,0.3378,0,0.1523,0.1564,0.1645,0.167,0.1743,0.1845,0.1937,0.2044,0.2183,0.2282,0.2427,0.2528,0.2756,0.2918,0.3043,0.3229,0.328,0.3302,0.3301,0.3236,0.3223,0.3199,0.3148,0.3384,0.3383,0.3382,0.3381,0,0.1476,0.1524,0.1581,0.1685,0.1717,0.1774,0.1904,0.1976,0.2103,0.2239,0.2292,0.2509,0.2737,0.2929,0.3188,0.3264,0.3368,0.347,0.336,0.3345,0.3312,0.3263,0.3266,0.3166,0.3569,0.3569,0.357,0,0.1462,0.1476,0.156,0.1593,0.1636,0.1722,0.1781,0.1922,0.2005,0.2225,0.229,0.2521,0.2702,0.3053,0.325,0.3479,0.3375,0.3515,0.3465,0.3355,0.3302,0.3132,0.3033,0.3467,0.3466,0.3466,0.3465,0,0.1439,0.1449,0.1496,0.1541,0.1595,0.1663,0.1762,0.1805,0.1989,0.2103,0.2293,0.2448,0.2787,0.3032,0.3298,0.3425,0.3363,0.3511,0.3459,0.3307,0.3075,0.296,0.3278,0.3462,0.3462,0.3462,0.3463,0.3463,0.1417,0.1431,0.1468,0.1518,0.1564,0.1612,0.1658,0.1767,0.1883,0.2078,0.2242,0.2474,0.2817,0.3211,0.33,0.3422,0.3339,0.3414,0.3387,0.3241,0.3083,0.3371,0.3504,0.3504,0.3505,0.3505,0.3506,0,0.1416,0.1429,0.1458,0.1512,0.1535,0.1572,0.1658,0.1709,0.1825,0.2031,0.2212,0.2584,0.2845,0.31,0.3367,0.3339,0.3178,0.3268,0.3048,0.2973,0.3325,0.3259,0.3269,0.3269,0.3269,0.3269,0.3269,0.3269,0.1425,0.144,0.145,0.1477,0.1504,0.1532,0.1569,0.1642,0.1776,0.2016,0.2239,0.2446,0.2832,0.3196,0.3301,0.3248,0.3004,0.2904,0.2826,0.312,0.3131,0.314,0.3069,0.3038,0.3038,0.238,0.2376,0.2372]},{"header":{"parameterUnit":"m.s-1","parameterCategory":2,"la1":30.2991,"la2":30.254,"lo1":-89.0895,"lo2":-89.0444,"dy":0.0017,"dx":0.0017,"nx":28,"ny":28,"refTime":"2024-08-21T21:00:00:Z","depth":"0","parameterNumber":3,"parameterNumberName":"V-component_of_CURRENTS"},"data":[0,0,0,0,0,0,0,0,0,0,0,0,0,0,0,0,0,0,0,0,0,0,0,0,0,0,0,0,0,0,0,0,0,0,0,0,0,0,0,0,0,0,0,0,0,0,0,0,0,0,0,0,0,0,0,0,0,0,-0.0543,-0.0544,0,-0.0619,-0.0619,-0.0619,-0.0677,-0.0678,-0.0679,-0.068,-0.0642,-0.064,-0.0638,0,0,0,0,0,0,0,0,0,0,0,0,0,-0.0359,-0.0362,-0.0543,-0.0545,-0.0546,-0.0619,-0.0619,-0.062,-0.0676,-0.0678,-0.0679,-0.068,-0.0643,-0.064,-0.0638,0,0,0,0,0,0,0,0,0,0,0,0,0,-0.0432,-0.0363,-0.0543,-0.0587,-0.0592,-0.0619,-0.0619,-0.062,-0.0676,-0.0678,-0.0679,-0.0681,-0.0644,-0.0641,-0.0638,-0.0588,0,0,-0.0629,-0.0627,0,0,0,0,0,0,0,0,-0.0427,-0.0438,-0.0579,-0.0584,-0.059,-0.0645,-0.0541,-0.0606,-0.0676,-0.0638,-0.068,-0.0681,-0.0635,-0.0633,-0.0637,-0.0586,-0.0585,-0.0628,-0.0627,-0.0625,-0.0625,0,0,0,0,0,0,0,-0.0422,-0.0434,-0.0567,-0.0581,-0.0588,-0.0573,-0.0585,-0.0553,-0.062,-0.0642,-0.0647,-0.0664,-0.0637,-0.064,-0.0636,-0.0584,-0.0629,-0.0626,-0.0624,-0.0623,-0.0417,-0.0414,0,0,0,0,0,0,-0.0428,-0.043,-0.0565,-0.057,-0.0517,-0.0576,-0.0589,-0.0621,-0.0623,-0.0628,-0.0663,-0.0667,-0.0644,-0.064,-0.0635,-0.0515,-0.0625,-0.0623,-0.0621,-0.0421,-0.0416,-0.0412,0,0,0,0,0,0,-0.0424,-0.044,-0.0562,-0.0505,-0.052,-0.0579,-0.0613,-0.0622,-0.0625,-0.0642,-0.0644,-0.0658,-0.0645,-0.0639,-0.059,-0.0516,-0.0621,-0.0619,-0.0425,-0.042,-0.0414,-0.0313,0,0,0,0,0,0,-0.0419,-0.0438,-0.0442,-0.0506,-0.0524,-0.0553,-0.0612,-0.0622,-0.0636,-0.0641,-0.0637,-0.0636,-0.0646,-0.0594,-0.0587,-0.0514,-0.0616,-0.043,-0.0423,-0.0416,-0.0321,-0.0305,-0.0291,0,0,0,0,0,-0.0412,-0.0409,-0.0442,-0.0457,-0.0535,-0.0552,-0.0557,-0.06,-0.0634,-0.0612,-0.0616,-0.0636,-0.0544,-0.0589,-0.0581,-0.0506,-0.0433,-0.0425,-0.0417,-0.0328,-0.0308,-0.0291,0,0,0,0,0,0,-0.032,-0.0417,-0.0454,-0.048,-0.0505,-0.0563,-0.055,-0.0588,-0.0577,-0.0578,-0.0601,-0.0597,-0.0521,-0.0523,-0.0573,-0.0422,-0.0486,-0.0475,-0.042,-0.0402,-0.0387,-0.0357,-0.0614,0,0,0,0,0,-0.0306,-0.0334,-0.041,-0.042,-0.0435,-0.049,-0.05,-0.053,-0.0544,-0.0544,-0.0545,-0.0524,-0.0478,-0.0453,-0.0419,-0.0343,-0.0357,-0.0283,-0.0268,-0.0255,-0.0222,-0.0203,-0.0184,-0.0385,-0.0385,-0.0385,0,0,-0.0274,-0.0328,-0.0344,-0.0402,-0.0429,-0.0411,-0.0497,-0.0501,-0.0466,-0.0534,-0.047,-0.0472,-0.0446,-0.0362,-0.0326,-0.0357,-0.0204,-0.0245,-0.0235,-0.0207,-0.0192,-0.0173,-0.0156,-0.038,-0.0381,-0.0381,0,0,-0.021,-0.0269,-0.0267,-0.0281,-0.0322,-0.0343,-0.0341,-0.0386,-0.0383,-0.0337,-0.0364,-0.0326,-0.0271,-0.0235,-0.021,-0.0084,-0.0128,-0.0068,0.0037,0.0054,0.007,0.0084,0.0085,0.0098,-0.0058,-0.0057,-0.0057,0,-0.0162,-0.0183,-0.0256,-0.0243,-0.0234,-0.0304,-0.0264,-0.0259,-0.0273,-0.0243,-0.0293,-0.0197,-0.0198,-0.0076,-0.0041,-0.0047,-0.0059,-0.0044,0.0071,0.0085,0.0097,0.0094,0.0107,-0.0052,-0.0052,-0.0053,-0.0053,0,-0.0097,-0.0102,-0.009,-0.01,-0.0085,-0.0064,-0.0077,-0.0044,-0.0059,-0.0062,0.0028,0.0016,0.0073,0.0084,0.0057,0.017,0.0125,0.0078,0.0014,0.0123,0.0113,0.0125,-0.0043,-0.0045,-0.0047,-0.0048,0,0,-0.0032,-0.0046,-0.0042,-0.0014,-0.0012,0.001,0.0095,0.0148,0.021,0.0209,0.0296,0.0348,0.031,0.0339,0.031,0.0323,0.0377,0.0243,0.0241,0.0227,0.0405,0.032,0.0323,0.0334,0.0337,0.034,0.0358,0,0.0042,0.0092,0.0077,0.0173,0.0203,0.0204,0.0292,0.0341,0.0363,0.0434,0.0437,0.0499,0.042,0.0436,0.0447,0.0405,0.0415,0.0376,0.0319,0.0318,0.0215,0.0337,0.027,0.0277,0.0369,0.0371,0.0373,0,0.0105,0.0131,0.0213,0.0297,0.0315,0.0381,0.0505,0.0569,0.0653,0.0669,0.0723,0.07,0.0762,0.0643,0.0648,0.0622,0.0535,0.0477,0.0475,0.0375,0.0256,0.0189,0.0294,0.0082,0.039,0.0388,0.0387,0,0.0165,0.0236,0.0308,0.0331,0.0413,0.0486,0.0551,0.0643,0.0711,0.081,0.0857,0.0908,0.0926,0.0866,0.0743,0.07,0.0708,0.0628,0.0477,0.0468,0.0395,0.0375,0.0278,0.0623,0.0623,0.0622,0.0622,0,0.0233,0.0296,0.0341,0.0378,0.0509,0.0549,0.0688,0.0759,0.0858,0.0961,0.0968,0.1046,0.0974,0.0955,0.0828,0.0707,0.0777,0.0537,0.0488,0.0427,0.0411,0.0206,0.0101,0.0623,0.0623,0.0623,0.0623,0,0.0276,0.0295,0.0385,0.0482,0.0525,0.0617,0.075,0.0843,0.0929,0.1065,0.1101,0.1165,0.1149,0.105,0.0954,0.0809,0.0571,0.0617,0.0544,0.0486,0.0134,0.0038,-0.0054,-0.0144,0.0483,0.0482,0.048,0,0.0304,0.0342,0.0444,0.0504,0.055,0.0672,0.0759,0.0867,0.0962,0.1134,0.1209,0.1244,0.1279,0.1125,0.0885,0.0687,0.0508,0.0467,0.0375,0.0144,0.0001,-0.0055,-0.0127,0.0316,0.0313,0.0311,0.0309,0,0.0369,0.0387,0.0457,0.0559,0.0655,0.0765,0.0896,0.0981,0.1121,0.124,0.1394,0.144,0.1286,0.1086,0.0792,0.0616,0.0302,0.0413,0.0209,-0.0088,-0.0185,-0.0306,0.0256,0.029,0.0292,0.0293,0.0295,0.0295,0.0424,0.048,0.0549,0.0658,0.0744,0.0863,0.0979,0.1109,0.1271,0.1479,0.1503,0.1603,0.126,0.0857,0.0601,0.0062,0.012,-0.0108,-0.0188,-0.021,-0.0343,0.017,0.0115,0.0116,0.0116,0.0117,0.0118,0,0.0521,0.0571,0.0654,0.0781,0.0865,0.0904,0.108,0.1205,0.1403,0.1558,0.1686,0.1543,0.1088,0.0642,-0.0065,-0.0452,-0.0575,-0.0655,-0.0752,-0.0784,-0.0303,-0.0362,-0.0566,-0.0566,-0.0566,-0.0565,-0.0565,-0.0565,0.0588,0.0683,0.0717,0.0872,0.0946,0.1103,0.1211,0.1384,0.153,0.1711,0.1764,0.1778,0.1373,0.0126,-0.0774,-0.0985,-0.1225,-0.1288,-0.137,-0.1081,-0.1036,-0.0994,-0.1075,-0.1425,-0.1426,-0.1828,-0.1833,-0.1836]}],[{"header":{"parameterUnit":"m.s-1","parameterCategory":2,"la1":30.2991,"la2":30.254,"lo1":-89.0895,"lo2":-89.0444,"dy":0.0017,"dx":0.0017,"nx":28,"ny":28,"refTime":"2024-08-21T21:00:00:Z","depth":"2","parameterNumber":2,"parameterNumberName":"U-component_of_CURRENTS"},"data":[0,0,0,0,0,0,0,0,0,0,0,0,0,0,0,0,0,0,0,0,0,0,0,0,0,0,0,0,0,0,0,0,0,0,0,0,0,0,0,0,0,0,0,0,0,0,0,0,0,0,0,0,0,0,0,0,0,0,0.1653,0.1654,0,0.1714,0.1714,0.1715,0.1708,0.1707,0.1706,0.1705,0.174,0.1742,0.1744,0,0,0,0,0,0,0,0,0,0,0,0,0,0.1539,0.1542,0.1653,0.1654,0.1655,0.1713,0.1714,0.1715,0.1708,0.1707,0.1705,0.1704,0.174,0.1742,0.1744,0,0,0,0,0,0,0,0,0,0,0,0,0,0.1595,0.1542,0.1653,0.1657,0.1658,0.1713,0.1714,0.1716,0.1709,0.1707,0.1705,0.1704,0.1739,0.1742,0.1745,0.1797,0,0,0.1754,0.1755,0,0,0,0,0,0,0,0,0.1592,0.1599,0.1656,0.1657,0.1658,0.17,0.1687,0.1741,0.1709,0.1691,0.1705,0.1703,0.1725,0.1729,0.1747,0.1798,0.18,0.1754,0.1756,0.1757,0.1758,0,0,0,0,0,0,0,0.1588,0.1597,0.1679,0.1656,0.1658,0.1658,0.1664,0.1698,0.1717,0.1692,0.1692,0.1696,0.1725,0.1744,0.1747,0.18,0.1754,0.1757,0.1758,0.176,0.1842,0.1842,0,0,0,0,0,0,0.1579,0.1593,0.1677,0.1681,0.1618,0.1661,0.1668,0.169,0.1718,0.172,0.1698,0.1696,0.1739,0.1744,0.1748,0.1792,0.1757,0.176,0.1762,0.1841,0.1842,0.1842,0,0,0,0,0,0,0.1577,0.1587,0.1674,0.1635,0.1646,0.1665,0.1689,0.1692,0.1711,0.1721,0.1723,0.1714,0.1738,0.1744,0.1779,0.1794,0.1761,0.1764,0.1841,0.1842,0.1842,0.1892,0,0,0,0,0,0,0.1574,0.1586,0.1602,0.1636,0.1648,0.1707,0.1691,0.1694,0.1716,0.1714,0.1736,0.1738,0.1737,0.1775,0.1782,0.1797,0.1766,0.184,0.1841,0.1842,0.189,0.1894,0.1898,0,0,0,0,0,0.157,0.1595,0.1603,0.1613,0.167,0.1708,0.1715,0.1722,0.1718,0.1733,0.1746,0.1737,0.1783,0.1779,0.1787,0.1803,0.184,0.1841,0.1842,0.1888,0.1893,0.1898,0,0,0,0,0,0,0.1549,0.1598,0.1607,0.1645,0.1674,0.1706,0.1721,0.1732,0.1759,0.1755,0.1761,0.1765,0.1795,0.1795,0.1789,0.1824,0.1803,0.1806,0.1835,0.1841,0.1845,0.1854,0.1769,0,0,0,0,0,0.1555,0.1589,0.1628,0.1657,0.1674,0.1703,0.172,0.173,0.1755,0.1765,0.1779,0.179,0.1809,0.182,0.1835,0.1873,0.1866,0.188,0.1884,0.1888,0.1899,0.1909,0.1915,0.1845,0.1845,0.1845,0,0,0.155,0.1584,0.16,0.1655,0.1679,0.1709,0.171,0.1741,0.1759,0.1766,0.1795,0.1812,0.1821,0.1852,0.1864,0.1854,0.1901,0.1889,0.1892,0.1902,0.191,0.1917,0.1924,0.1846,0.1846,0.1846,0,0,0.1552,0.1594,0.1618,0.1649,0.1691,0.1717,0.1728,0.1769,0.1777,0.1822,0.1818,0.1844,0.1883,0.1886,0.1894,0.1932,0.1923,0.1933,0.1968,0.1977,0.1984,0.1989,0.198,0.1984,0.1934,0.1935,0.1935,0,0.1541,0.1586,0.1628,0.1658,0.1684,0.1721,0.1748,0.1772,0.1814,0.1822,0.183,0.1885,0.1895,0.1925,0.1942,0.1942,0.1946,0.1952,0.1984,0.199,0.1994,0.1983,0.1987,0.1937,0.1937,0.1937,0.1936,0,0.1557,0.1597,0.1615,0.167,0.1704,0.1739,0.1777,0.1801,0.1828,0.1848,0.1888,0.192,0.1947,0.1956,0.1975,0.201,0.2001,0.199,0.1976,0.2005,0.199,0.1994,0.1941,0.194,0.1939,0.1938,0,0,0.1525,0.1609,0.1615,0.1646,0.1718,0.1747,0.178,0.182,0.1839,0.1883,0.1912,0.1962,0.1985,0.1997,0.2015,0.2041,0.2082,0.2048,0.2047,0.2045,0.2103,0.2097,0.21,0.2089,0.209,0.2091,0.2076,0,0.1524,0.158,0.1624,0.1678,0.1717,0.1763,0.1791,0.1828,0.1868,0.1904,0.1935,0.198,0.1996,0.2033,0.2059,0.2087,0.2096,0.2087,0.2069,0.2068,0.2066,0.2106,0.1988,0.1966,0.2079,0.2079,0.208,0,0.1519,0.157,0.1616,0.1695,0.1713,0.1749,0.181,0.1843,0.1891,0.1919,0.1966,0.2001,0.2059,0.2068,0.2114,0.2116,0.2117,0.2127,0.2126,0.211,0.2071,0.1956,0.1967,0.2085,0.2085,0.2084,0.2084,0,0.1475,0.156,0.1598,0.1627,0.1717,0.174,0.1793,0.1846,0.1867,0.1944,0.1978,0.2033,0.2084,0.2103,0.2143,0.2139,0.2185,0.216,0.2138,0.2136,0.2026,0.2013,0.2171,0.2171,0.2171,0.2171,0.2171,0,0.1459,0.1495,0.1585,0.1609,0.1658,0.1732,0.1774,0.1824,0.1886,0.1919,0.1995,0.2033,0.2107,0.2143,0.2151,0.2169,0.2179,0.2159,0.2143,0.2038,0.2027,0.2123,0.2117,0.2171,0.2171,0.2171,0.2171,0,0.1406,0.1459,0.1514,0.1609,0.1636,0.1678,0.1762,0.1791,0.1868,0.1919,0.1952,0.2044,0.2113,0.2157,0.2197,0.2183,0.2192,0.218,0.2053,0.2025,0.2126,0.2123,0.2152,0.2152,0.2152,0.2152,0.2152,0,0.139,0.1408,0.1494,0.1527,0.1575,0.1643,0.1677,0.1763,0.1798,0.1912,0.1931,0.2035,0.208,0.2144,0.2168,0.2176,0.2188,0.2049,0.2019,0.2148,0.2129,0.2126,0.2124,0.1875,0.1873,0.1871,0.1869,0,0.1371,0.1387,0.1431,0.1486,0.1535,0.1579,0.1649,0.1662,0.1765,0.1807,0.1882,0.1936,0.2045,0.2034,0.208,0.2056,0.2049,0.2013,0.2176,0.1915,0.189,0.1871,0.1876,0.1852,0.1854,0.1855,0.1856,0.1857,0.1352,0.1367,0.1407,0.1456,0.1499,0.1528,0.1548,0.1593,0.1622,0.1689,0.1777,0.1829,0.189,0.1921,0.1878,0.1876,0.1988,0.1905,0.1908,0.1914,0.1903,0.1881,0.1837,0.1839,0.184,0.1841,0.1842,0,0.1339,0.1353,0.1385,0.1432,0.1445,0.1493,0.1529,0.1512,0.1512,0.1605,0.1652,0.1578,0.161,0.1676,0.1666,0.1677,0.1634,0.1605,0.1539,0.1559,0.1576,0.1544,0.1385,0.1383,0.1381,0.1379,0,0,0.1335,0.1339,0.1343,0.1364,0.14,0.1405,0.1417,0.1366,0.1402,0.1377,0.142,0.1565,0.1664,0.1503,0.1494,0.1448,0.1485,0.14,0.1778,0.1724,0.1738,0.1774,0.1751,0,0,0,0,0]},{"header":{"parameterUnit":"m.s-1","parameterCategory":2,"la1":30.2991,"la2":30.254,"lo1":-89.0895,"lo2":-89.0444,"dy":0.0017,"dx":0.0017,"nx":28,"ny":28,"refTime":"2024-08-21T21:00:00:Z","depth":"2","parameterNumber":3,"parameterNumberName":"V-component_of_CURRENTS"},"data":[0,0,0,0,0,0,0,0,0,0,0,0,0,0,0,0,0,0,0,0,0,0,0,0,0,0,0,0,0,0,0,0,0,0,0,0,0,0,0,0,0,0,0,0,0,0,0,0,0,0,0,0,0,0,0,0,0,0,-0.0501,-0.0502,0,-0.0576,-0.0577,-0.0578,-0.0629,-0.0629,-0.063,-0.063,-0.0643,-0.0643,-0.0643,0,0,0,0,0,0,0,0,0,0,0,0,0,-0.0339,-0.0342,-0.0501,-0.0502,-0.0503,-0.0576,-0.0577,-0.0578,-0.0628,-0.0629,-0.063,-0.0631,-0.0644,-0.0643,-0.0643,0,0,0,0,0,0,0,0,0,0,0,0,0,-0.0409,-0.0343,-0.0501,-0.0539,-0.0543,-0.0576,-0.0577,-0.0578,-0.0628,-0.0629,-0.063,-0.0631,-0.0644,-0.0643,-0.0643,-0.0624,0,0,-0.0642,-0.0642,0,0,0,0,0,0,0,0,-0.0405,-0.0415,-0.0532,-0.0536,-0.0541,-0.0596,-0.0525,-0.0591,-0.0628,-0.0593,-0.063,-0.0631,-0.0623,-0.0624,-0.0634,-0.0625,-0.0625,-0.0642,-0.0642,-0.0642,-0.0642,0,0,0,0,0,0,0,-0.04,-0.0412,-0.0528,-0.0533,-0.0539,-0.0532,-0.0543,-0.0538,-0.0599,-0.0597,-0.0601,-0.0613,-0.0625,-0.0634,-0.0635,-0.0625,-0.0642,-0.0642,-0.0642,-0.0642,-0.0631,-0.0631,0,0,0,0,0,0,-0.0399,-0.0408,-0.0526,-0.0531,-0.0477,-0.0534,-0.0547,-0.0576,-0.0601,-0.0607,-0.0612,-0.0615,-0.0634,-0.0635,-0.0635,-0.0602,-0.0642,-0.0642,-0.0641,-0.0631,-0.0631,-0.0631,0,0,0,0,0,0,-0.0395,-0.0409,-0.0523,-0.0471,-0.0486,-0.0537,-0.0569,-0.0577,-0.0588,-0.0614,-0.0618,-0.0616,-0.0635,-0.0635,-0.0619,-0.0603,-0.0642,-0.0641,-0.0631,-0.0631,-0.0631,-0.0542,0,0,0,0,0,0,-0.0391,-0.0408,-0.0415,-0.0472,-0.0489,-0.052,-0.0568,-0.0578,-0.0596,-0.06,-0.0618,-0.0621,-0.0636,-0.0619,-0.0618,-0.0603,-0.0641,-0.0631,-0.0631,-0.0631,-0.0545,-0.0539,-0.0534,0,0,0,0,0,-0.0385,-0.0385,-0.0415,-0.0429,-0.0502,-0.0519,-0.0525,-0.0563,-0.0595,-0.058,-0.06,-0.062,-0.0619,-0.0617,-0.0617,-0.0602,-0.0631,-0.0631,-0.0631,-0.0548,-0.054,-0.0534,0,0,0,0,0,0,-0.0305,-0.0392,-0.0426,-0.0451,-0.0476,-0.0528,-0.0519,-0.0557,-0.0564,-0.0566,-0.0601,-0.0603,-0.0584,-0.0608,-0.0607,-0.0604,-0.0635,-0.0635,-0.0573,-0.0566,-0.056,-0.0541,-0.0641,0,0,0,0,0,-0.0297,-0.0324,-0.0392,-0.0402,-0.0417,-0.047,-0.0481,-0.0508,-0.0531,-0.0537,-0.0551,-0.0572,-0.0583,-0.0585,-0.0588,-0.0575,-0.0611,-0.0575,-0.0569,-0.0563,-0.0551,-0.0602,-0.0599,-0.063,-0.063,-0.063,0,0,-0.0267,-0.0316,-0.0331,-0.0387,-0.0413,-0.0404,-0.0477,-0.0483,-0.0481,-0.0533,-0.0514,-0.0538,-0.0574,-0.0559,-0.0556,-0.0577,-0.0573,-0.0563,-0.0558,-0.0548,-0.0601,-0.0598,-0.0595,-0.0629,-0.063,-0.063,0,0,-0.0208,-0.0265,-0.0265,-0.0282,-0.032,-0.0346,-0.0347,-0.0391,-0.0417,-0.0404,-0.0453,-0.0472,-0.0468,-0.0506,-0.0525,-0.0493,-0.0534,-0.0496,-0.0452,-0.0501,-0.0499,-0.0497,-0.053,-0.0532,-0.0501,-0.0501,-0.0501,0,-0.0165,-0.0187,-0.0256,-0.0248,-0.0256,-0.0315,-0.0296,-0.0319,-0.0348,-0.0386,-0.0378,-0.0424,-0.0448,-0.0476,-0.0461,-0.0478,-0.0502,-0.047,-0.0492,-0.0491,-0.0491,-0.0525,-0.0528,-0.0496,-0.0497,-0.0497,-0.0498,0,-0.0106,-0.0116,-0.0105,-0.0126,-0.0135,-0.0121,-0.0173,-0.0189,-0.0224,-0.0268,-0.0297,-0.0323,-0.0362,-0.0376,-0.0397,-0.0418,-0.0434,-0.047,-0.0504,-0.0482,-0.052,-0.0525,-0.049,-0.0492,-0.0493,-0.0494,0,0,-0.0044,-0.0064,-0.0061,-0.0059,-0.0077,-0.0082,-0.0086,-0.0136,-0.0166,-0.0182,-0.022,-0.024,-0.0278,-0.0302,-0.0343,-0.0379,-0.0393,-0.0406,-0.0411,-0.0426,-0.048,-0.0476,-0.0482,-0.0426,-0.0426,-0.0427,-0.0503,0,0.0022,0.0061,0.0024,0.0072,0.0087,0.0021,0.0016,-0.0039,-0.0087,-0.0127,-0.0204,-0.0219,-0.0245,-0.025,-0.029,-0.0368,-0.0402,-0.0367,-0.0509,-0.0513,-0.0503,-0.0486,-0.0448,-0.0511,-0.0508,-0.0509,-0.051,0,0.0076,0.0096,0.0146,0.0132,0.0127,0.0157,0.0098,0.0088,-0.0007,-0.0053,-0.0101,-0.0155,-0.0203,-0.022,-0.033,-0.03,-0.037,-0.0431,-0.0437,-0.0465,-0.0518,-0.0537,-0.0521,-0.0519,-0.0518,-0.0518,-0.0517,0,0.013,0.0164,0.0202,0.0209,0.0201,0.0195,0.0195,0.0114,0.0087,0.0014,-0.0001,-0.0094,-0.0103,-0.021,-0.0326,-0.0323,-0.0453,-0.0484,-0.0551,-0.0552,-0.0564,-0.0565,-0.0562,-0.0562,-0.0562,-0.0562,-0.0562,0,0.0185,0.0215,0.0243,0.0265,0.0307,0.0275,0.0287,0.0242,0.0195,0.0176,0.0076,0.0053,-0.0092,-0.0195,-0.0315,-0.0439,-0.0452,-0.0531,-0.057,-0.0532,-0.0528,-0.0575,-0.0576,-0.0565,-0.0564,-0.0563,-0.0563,0,0.0219,0.0237,0.0288,0.0317,0.0332,0.037,0.0386,0.0379,0.0337,0.0321,0.0313,0.0179,0.0059,-0.0112,-0.0295,-0.04,-0.0548,-0.0596,-0.0528,-0.0557,-0.0614,-0.0609,-0.0666,-0.0667,-0.0667,-0.0668,-0.0668,0,0.0239,0.0271,0.0337,0.0384,0.0411,0.0465,0.0485,0.046,0.0448,0.0392,0.0378,0.0274,0.0174,-0.0093,-0.0299,-0.0514,-0.0548,-0.0609,-0.06,-0.0591,-0.0624,-0.0619,-0.0614,-0.0585,-0.0585,-0.0584,-0.0584,0,0.0287,0.0308,0.035,0.0449,0.051,0.0555,0.059,0.0596,0.0554,0.053,0.047,0.04,0.0181,-0.0037,-0.0307,-0.0447,-0.0572,-0.0607,-0.0636,-0.0556,-0.0519,-0.055,-0.0547,-0.0581,-0.0581,-0.0582,-0.0582,-0.0582,0.0325,0.0368,0.0428,0.0508,0.0581,0.0625,0.0652,0.065,0.0638,0.0604,0.0545,0.0477,0.0244,-0.0081,-0.0322,-0.0534,-0.0541,-0.0616,-0.0616,-0.0616,-0.0584,-0.0549,-0.061,-0.0611,-0.0611,-0.0611,-0.0612,0,0.0373,0.0414,0.0484,0.0571,0.0627,0.0671,0.0692,0.0686,0.0661,0.0682,0.0641,0.0452,0.0216,-0.0015,-0.0326,-0.0546,-0.0555,-0.0596,-0.0568,-0.0569,-0.0571,-0.0536,-0.0551,-0.0551,-0.0551,-0.0551,0,0,0.0404,0.0454,0.0467,0.0572,0.0647,0.0708,0.0718,0.0706,0.0708,0.0695,0.0698,0.0638,0.0328,0.0114,-0.019,-0.0357,-0.0403,-0.0382,-0.041,-0.0343,-0.0342,-0.0566,-0.0512,0,0,0,0,0]}],[{"header":{"parameterUnit":"m.s-1","parameterCategory":2,"la1":30.2991,"la2":30.254,"lo1":-89.0895,"lo2":-89.0444,"dy":0.0017,"dx":0.0017,"nx":28,"ny":28,"refTime":"2024-08-21T21:00:00:Z","depth":"4","parameterNumber":2,"parameterNumberName":"U-component_of_CURRENTS"},"data":[0,0,0,0,0,0,0,0,0,0,0,0,0,0,0,0,0,0,0,0,0,0,0,0,0,0,0,0,0,0,0,0,0,0,0,0,0,0,0,0,0,0,0,0,0,0,0,0,0,0,0,0,0,0,0,0,0,0,0.0622,0.0622,0,0.0637,0.0636,0.0636,0.0659,0.066,0.066,0.0661,0.0725,0.0726,0.0727,0,0,0,0,0,0,0,0,0,0,0,0,0,0.0594,0.0594,0.0622,0.0622,0.0623,0.0637,0.0636,0.0636,0.0659,0.066,0.066,0.0661,0.0725,0.0726,0.0727,0,0,0,0,0,0,0,0,0,0,0,0,0,0.0603,0.0594,0.0622,0.0638,0.064,0.0637,0.0636,0.0636,0.0658,0.066,0.0661,0.0662,0.0725,0.0726,0.0728,0.0716,0,0,0.0732,0.0733,0,0,0,0,0,0,0,0,0.0603,0.0604,0.0635,0.0637,0.0639,0.065,0.065,0.0667,0.0658,0.0648,0.0661,0.0662,0.0706,0.0709,0.0704,0.0719,0.0721,0.0733,0.0734,0.0734,0.0735,0,0,0,0,0,0,0,0.0602,0.0603,0.0624,0.0636,0.0638,0.0639,0.0641,0.0653,0.0669,0.0649,0.0651,0.0658,0.0707,0.0702,0.0706,0.0722,0.0733,0.0734,0.0735,0.0736,0.083,0.0832,0,0,0,0,0,0,0.0607,0.0603,0.0624,0.0625,0.0627,0.0638,0.0641,0.0643,0.0668,0.0673,0.0657,0.0659,0.0699,0.0704,0.0708,0.0768,0.0734,0.0736,0.0737,0.0829,0.0831,0.0832,0,0,0,0,0,0,0.0606,0.0609,0.0623,0.0617,0.062,0.0638,0.064,0.0642,0.0662,0.0674,0.068,0.0678,0.07,0.0706,0.0754,0.0768,0.0736,0.0738,0.0827,0.0829,0.0831,0.0841,0,0,0,0,0,0,0.0605,0.0608,0.0618,0.0617,0.062,0.0639,0.0639,0.0642,0.0665,0.0668,0.0694,0.0699,0.0702,0.0752,0.0755,0.077,0.0739,0.0825,0.0828,0.0831,0.0839,0.0843,0.0847,0,0,0,0,0,0.0604,0.061,0.0618,0.0621,0.0631,0.064,0.0641,0.0655,0.0665,0.0676,0.0706,0.07,0.0773,0.0754,0.0758,0.0773,0.0823,0.0827,0.083,0.0837,0.0842,0.0847,0,0,0,0,0,0,0.0604,0.0613,0.0622,0.0631,0.0645,0.0645,0.0659,0.0667,0.0694,0.0709,0.0718,0.0726,0.077,0.0778,0.0757,0.0813,0.0797,0.0802,0.0801,0.0806,0.0811,0.0815,0.074,0,0,0,0,0,0.0608,0.0615,0.0627,0.0637,0.0647,0.0657,0.0666,0.0678,0.0698,0.0711,0.0738,0.0766,0.0782,0.0801,0.0821,0.0851,0.0852,0.0867,0.0871,0.0875,0.0883,0.0891,0.0896,0.0844,0.0844,0.0844,0,0,0.0608,0.0618,0.062,0.0638,0.0649,0.067,0.0665,0.0687,0.0713,0.0715,0.0771,0.0783,0.0795,0.0829,0.0849,0.0842,0.0893,0.0879,0.0882,0.0889,0.0895,0.09,0.0904,0.0846,0.0846,0.0845,0,0,0.0617,0.0625,0.064,0.0655,0.0684,0.069,0.0704,0.0728,0.0749,0.0798,0.0801,0.0829,0.0873,0.0875,0.0879,0.0923,0.0913,0.0933,0.0958,0.0965,0.0969,0.0972,0.0982,0.0987,0.0937,0.0937,0.0937,0,0.0625,0.0641,0.0646,0.0672,0.0688,0.0705,0.0729,0.0749,0.0792,0.081,0.083,0.0879,0.0892,0.0903,0.0925,0.093,0.0936,0.093,0.0968,0.0971,0.0974,0.0984,0.0989,0.0938,0.0938,0.0938,0.0937,0,0.0648,0.0667,0.0679,0.0715,0.0732,0.0754,0.0782,0.0814,0.0848,0.0868,0.091,0.0927,0.0955,0.0958,0.0959,0.0981,0.098,0.0966,0.0946,0.0979,0.0989,0.0993,0.0939,0.0939,0.0938,0.0938,0,0,0.0651,0.0687,0.0697,0.0713,0.0757,0.0767,0.0813,0.0846,0.0873,0.0923,0.0956,0.0984,0.0996,0.1003,0.0997,0.1005,0.1034,0.1005,0.1005,0.1002,0.1057,0.1045,0.1048,0.1025,0.1025,0.1026,0.1055,0,0.0674,0.0715,0.0733,0.0772,0.0789,0.0814,0.0848,0.0882,0.0921,0.0962,0.0975,0.1012,0.101,0.1027,0.1035,0.1037,0.1046,0.1028,0.1039,0.1039,0.1012,0.1053,0.1029,0.1058,0.1059,0.106,0.106,0,0.0702,0.0718,0.076,0.0785,0.0798,0.0827,0.087,0.0906,0.0955,0.0987,0.1021,0.1043,0.1072,0.1064,0.1087,0.1078,0.1079,0.1074,0.1074,0.1063,0.1035,0.1021,0.1068,0.1067,0.1067,0.1066,0.1066,0,0.0696,0.0739,0.0769,0.0782,0.0819,0.0842,0.0867,0.0916,0.095,0.1009,0.1044,0.1074,0.1108,0.1111,0.1134,0.1114,0.1155,0.1118,0.1103,0.1101,0.1095,0.1092,0.1131,0.1131,0.1131,0.1131,0.1131,0,0.0708,0.0728,0.0768,0.078,0.0807,0.084,0.0883,0.0913,0.097,0.101,0.1059,0.1094,0.1125,0.1158,0.1152,0.1159,0.1175,0.1121,0.1112,0.1101,0.1098,0.1098,0.1094,0.1132,0.1132,0.1132,0.1131,0,0.069,0.0727,0.0752,0.0791,0.0806,0.0827,0.0886,0.0911,0.0975,0.103,0.1057,0.1129,0.118,0.1204,0.1223,0.119,0.1187,0.1181,0.1191,0.118,0.1119,0.1115,0.1153,0.1153,0.1153,0.1153,0.1153,0,0.0671,0.0689,0.0748,0.0762,0.0782,0.082,0.0842,0.0907,0.0939,0.1044,0.1061,0.115,0.1192,0.1208,0.1234,0.1235,0.1217,0.1203,0.114,0.1136,0.1123,0.112,0.1116,0.1153,0.1153,0.1153,0.1153,0,0.0619,0.0665,0.0686,0.0725,0.0755,0.0782,0.0822,0.0846,0.0929,0.0995,0.1058,0.1102,0.1164,0.1193,0.1222,0.1208,0.1203,0.1201,0.12,0.114,0.1135,0.1123,0.1119,0.1153,0.1153,0.1153,0.1153,0,0.0577,0.0589,0.064,0.067,0.0708,0.0731,0.0762,0.0805,0.0854,0.0971,0.0995,0.1085,0.1159,0.1182,0.12,0.1208,0.1174,0.1115,0.1117,0.1118,0.1096,0.1084,0.109,0,0,0,0,0,0.0522,0.0547,0.0571,0.0611,0.065,0.0678,0.0739,0.0776,0.0866,0.0891,0.0945,0.1004,0.1065,0.1111,0.111,0.1176,0.1169,0.117,0.1099,0.1151,0.1151,0.113,0,0,0,0,0,0,0.0491,0.0522,0.0553,0.0558,0.0574,0.0611,0.0654,0.0713,0.0737,0.0833,0.0872,0.0948,0.1017,0.1055,0.1091,0.1105,0.1043,0.1229,0.1227,0.1151,0.1151,0.1151,0.1129,0,0,0,0,0]},{"header":{"parameterUnit":"m.s-1","parameterCategory":2,"la1":30.2991,"la2":30.254,"lo1":-89.0895,"lo2":-89.0444,"dy":0.0017,"dx":0.0017,"nx":28,"ny":28,"refTime":"2024-08-21T21:00:00:Z","depth":"4","parameterNumber":3,"parameterNumberName":"V-component_of_CURRENTS"},"data":[0,0,0,0,0,0,0,0,0,0,0,0,0,0,0,0,0,0,0,0,0,0,0,0,0,0,0,0,0,0,0,0,0,0,0,0,0,0,0,0,0,0,0,0,0,0,0,0,0,0,0,0,0,0,0,0,0,0,0.0271,0.027,0,0.0215,0.0214,0.0213,0.0195,0.0195,0.0196,0.0196,0.0022,0.0017,0.0012,0,0,0,0,0,0,0,0,0,0,0,0,0,0.0276,0.0277,0.0271,0.027,0.027,0.0215,0.0214,0.0213,0.0195,0.0195,0.0196,0.0196,0.0024,0.0018,0.0012,0,0,0,0,0,0,0,0,0,0,0,0,0,0.025,0.0277,0.0271,0.0256,0.0254,0.0215,0.0214,0.0212,0.0195,0.0195,0.0196,0.0197,0.0026,0.0018,0.0011,-0.0052,0,0,-0.0013,-0.0016,0,0,0,0,0,0,0,0,0.0252,0.025,0.0259,0.0257,0.0255,0.0215,0.0152,0.0119,0.0194,0.0214,0.0196,0.0197,0.0077,0.0065,0.005,-0.006,-0.0067,-0.0013,-0.0018,-0.0021,-0.0024,0,0,0,0,0,0,0,0.0254,0.0251,0.0246,0.0258,0.0256,0.0223,0.0221,0.0146,0.0138,0.0213,0.0212,0.021,0.0075,0.0058,0.0046,-0.007,-0.0013,-0.002,-0.0025,-0.0028,-0.0267,-0.0268,0,0,0,0,0,0,0.027,0.0254,0.0247,0.0244,0.0258,0.0223,0.022,0.0225,0.0141,0.0131,0.0209,0.0209,0.0071,0.0055,0.004,-0.0059,-0.0021,-0.0028,-0.0033,-0.0265,-0.0267,-0.0269,0,0,0,0,0,0,0.027,0.027,0.025,0.0249,0.0245,0.0223,0.0228,0.0223,0.021,0.014,0.0127,0.0201,0.0071,0.005,-0.004,-0.0066,-0.0032,-0.0039,-0.0263,-0.0266,-0.0268,-0.0245,0,0,0,0,0,0,0.0271,0.0271,0.0275,0.0251,0.0246,0.0216,0.0227,0.0222,0.0209,0.0208,0.0128,0.0114,0.007,-0.0028,-0.0047,-0.0075,-0.0045,-0.0261,-0.0264,-0.0267,-0.0244,-0.0247,-0.025,0,0,0,0,0,0.0271,0.0269,0.0276,0.0275,0.0255,0.0216,0.0209,0.0194,0.0208,0.0188,0.0135,0.0116,-0.0062,-0.0036,-0.0058,-0.0089,-0.0259,-0.0263,-0.0267,-0.0243,-0.0246,-0.0249,0,0,0,0,0,0,0.0264,0.0267,0.0274,0.0272,0.0245,0.0214,0.0198,0.0195,0.0141,0.0139,0.0085,0.0063,-0.0025,-0.0065,-0.0034,-0.0168,-0.0161,-0.017,-0.0135,-0.0139,-0.0142,-0.0132,-0.0051,0,0,0,0,0,0.027,0.0277,0.026,0.0256,0.0246,0.0225,0.021,0.0198,0.0153,0.0134,0.0074,0.0008,-0.006,-0.0103,-0.0176,-0.0254,-0.0277,-0.0287,-0.029,-0.0292,-0.03,-0.0346,-0.0352,-0.0282,-0.0282,-0.0282,0,0,0.0267,0.0269,0.0273,0.0256,0.0239,0.0198,0.0216,0.0188,0.0149,0.0117,0.0034,-0.0012,-0.0085,-0.0171,-0.0213,-0.0206,-0.0325,-0.0297,-0.0298,-0.0305,-0.035,-0.0357,-0.0363,-0.0285,-0.0284,-0.0284,0,0,0.0245,0.0265,0.0253,0.0228,0.0204,0.0184,0.0178,0.0136,0.0115,0.0033,0.0008,-0.0048,-0.0171,-0.0213,-0.0251,-0.0316,-0.0339,-0.0341,-0.0348,-0.0392,-0.0397,-0.0402,-0.0432,-0.044,-0.0339,-0.0339,-0.0339,0,0.0236,0.0227,0.0237,0.0203,0.0184,0.0177,0.0138,0.0102,0.0032,0.0015,0.0,-0.0136,-0.0191,-0.0267,-0.0289,-0.0321,-0.0346,-0.0323,-0.0392,-0.0398,-0.0403,-0.0433,-0.0442,-0.0339,-0.0339,-0.0339,-0.0339,0,0.0192,0.0181,0.0166,0.0132,0.0107,0.0074,0.0036,0.0004,-0.0018,-0.0049,-0.0126,-0.0195,-0.0264,-0.029,-0.0317,-0.038,-0.0385,-0.0387,-0.0373,-0.0409,-0.0438,-0.0448,-0.0338,-0.0338,-0.0338,-0.0338,0,0,0.0176,0.0145,0.0138,0.0125,0.0074,0.0053,-0.0007,-0.0051,-0.0067,-0.0144,-0.018,-0.0284,-0.0287,-0.033,-0.0356,-0.0396,-0.0451,-0.0409,-0.0412,-0.042,-0.0543,-0.0481,-0.0485,-0.0463,-0.0465,-0.0466,-0.0544,0,0.0135,0.0087,0.0073,0.0019,-0.0006,-0.0023,-0.0068,-0.0106,-0.0142,-0.0187,-0.0232,-0.0292,-0.0312,-0.0333,-0.0379,-0.0436,-0.0478,-0.043,-0.0525,-0.0528,-0.0452,-0.0495,-0.0472,-0.0551,-0.0553,-0.0555,-0.0556,0,0.0089,0.0071,0.0024,0.0,-0.0011,-0.005,-0.0078,-0.0123,-0.0175,-0.0198,-0.0248,-0.0287,-0.0358,-0.0366,-0.0481,-0.045,-0.0502,-0.0542,-0.0546,-0.0503,-0.0484,-0.0515,-0.0574,-0.0572,-0.0571,-0.057,-0.0569,0,0.0095,0.004,0.0019,0.0,-0.0042,-0.0055,-0.0079,-0.0122,-0.0139,-0.02,-0.0217,-0.0303,-0.0343,-0.043,-0.0506,-0.0505,-0.0621,-0.0626,-0.062,-0.0616,-0.0655,-0.0649,-0.0714,-0.0713,-0.0713,-0.0713,-0.0713,0,0.0069,0.0047,0.0025,0.0011,-0.0008,-0.0041,-0.0061,-0.0089,-0.0127,-0.014,-0.0214,-0.024,-0.0363,-0.0436,-0.0513,-0.0587,-0.0628,-0.0633,-0.0638,-0.0645,-0.0637,-0.0662,-0.0655,-0.0716,-0.0715,-0.0715,-0.0714,0,0.007,0.0055,0.0032,0.0002,-0.0004,-0.0016,-0.004,-0.005,-0.0087,-0.0108,-0.0126,-0.0209,-0.0297,-0.0403,-0.0536,-0.0579,-0.0663,-0.0677,-0.0668,-0.0669,-0.0633,-0.0624,-0.0698,-0.0696,-0.0695,-0.0694,-0.0693,0,0.006,0.0051,0.0038,0.0037,0.0022,0.0006,0.0003,-0.0027,-0.0034,-0.0076,-0.0082,-0.0168,-0.0227,-0.0359,-0.0481,-0.0621,-0.0631,-0.0678,-0.0674,-0.0637,-0.0635,-0.0628,-0.0621,-0.0691,-0.0691,-0.069,-0.069,0,0.0036,0.0044,0.0035,0.0045,0.0045,0.0045,0.0036,0.0045,0.0022,-0.0011,-0.0027,-0.0103,-0.0193,-0.0319,-0.042,-0.0523,-0.0653,-0.0666,-0.067,-0.0667,-0.063,-0.0627,-0.0622,-0.0686,-0.0687,-0.0687,-0.0687,0,0.002,0.0021,0.0029,0.0041,0.0057,0.0082,0.0076,0.0078,0.0076,0.0043,0.0041,-0.0061,-0.0134,-0.0268,-0.0364,-0.0453,-0.0484,-0.0513,-0.0525,-0.0531,-0.0453,-0.0381,-0.0372,0,0,0,0,0,-0.001,0.0004,0.0019,0.0046,0.0077,0.0086,0.0098,0.0094,0.0088,0.0099,0.0076,0.0004,-0.0128,-0.0203,-0.028,-0.0364,-0.0518,-0.0458,-0.0561,-0.0663,-0.0667,-0.0598,0,0,0,0,0,0,-0.0031,-0.0018,0.0013,0.0059,0.0085,0.0115,0.0131,0.0127,0.013,0.0114,0.0045,-0.0001,-0.0139,-0.0075,-0.0275,-0.0308,-0.038,-0.0533,-0.0534,-0.066,-0.0664,-0.0668,-0.0598,0,0,0,0,0]}]]